Preview of NWS' New Version of Forecast
This preview is not operational and should not be used for support decisions.

Regional Weather Roundup (RWR)

Issued by National Weather Service (NWS)

                            
000
ASUS45 KBOU 182010
RWRCO 

WEATHER ROUNDUP FOR COLORADO
NATIONAL WEATHER SERVICE DENVER/BOULDER CO
200 PM MDT TUE JUN 18 2019

NOTE: "FAIR" INDICATES FEW OR NO CLOUDS BELOW 12000 FEET WITH NO
SIGNIFICANT WEATHER AND/OR OBSTRUCTIONS TO VISIBILITY.

COZ001>005-013-030-031-182100-
...NORTHWEST COLORADO...
  
CITY           SKY/WX    TMP DP  RH WIND       PRES   REMARKS
CRAIG          FAIR      72  48  42 SW13G21   30.11F                  
HAYDEN         CLOUDY    61  50  67 SE7       30.15F                  
MEEKER         CLOUDY    58  47  66 S12       30.16S                  
RANGELY        FAIR      76  42  30 W7G16     30.08F                  
RABBIT EARS PA NOT AVBL                                               
STEAMBOAT SPGS FAIR      56  49  77 E8        30.17F                  
WALDEN         PTSUNNY   54  41  62 NW10G22   30.23S                  
$$

COZ006>008-011-182100-
...WEST CENTRAL VALLEYS...
  
CITY           SKY/WX    TMP DP  RH WIND       PRES   REMARKS
GRAND JUNCTION FAIR      71  52  50 VRB6      30.10F                  
MONTROSE       LGT RAIN  61  52  72 W7        30.17F                  
EAGLE          CLOUDY    60  50  69 W8        30.21S                  
RIFLE          CLOUDY    61  52  72 CALM      30.18S                  
DELTA          FAIR      73  50  44 SE5       30.12F                  
NUCLA          CLOUDY    72  37  28 SW17G25   30.16F                  
$$

COZ017>023-064>068-182100-
...SOUTHWEST COLORADO...
  
CITY           SKY/WX    TMP DP  RH WIND       PRES   REMARKS
DURANGO        FAIR      76  37  24 SW17G31   30.14F                  
CORTEZ         PTSUNNY   77  40  26 W16G26    30.12F                  
PAGOSA SPRINGS PTSUNNY   64  37  35 N3        30.23R                  
TELLURIDE      TSTM      50  41  71 CALM      30.36R                  
WOLF CREEK PAS TSTM      36  32  87 W17G30    30.53S                  
$$

COZ009-010-012-014-032>034-037-058>063-182100-
...CENTRAL COLORADO...
  
CITY           SKY/WX    TMP DP  RH WIND       PRES   REMARKS
ASPEN          RAIN      53  47  79 N6        30.26R                  
BUENA VISTA    FAIR      65  37  35 SW18      30.17F                  
COPPER MTN     CLOUDY    41  37  87 MISG      30.43S FOG              
BERTHOUD PASS  CLOUDY    34  25  69 W22       30.42F WCI  22          
COTTONWOOD PAS FAIR      55  36  47 NW16G31   30.28F                  
GUNNISON       PTSUNNY   66  39  37 W10G23    30.20F                  
GRANBY         MOCLDY    52  47  83 S7        30.25F                  
KREMMLING      NOT AVBL                                               
LEADVILLE      PTSUNNY   55  37  50 NW16G28   30.29S                  
MONARCH PASS   FAIR      45  34  65 MISG      30.51F                  
SALIDA         PTSUNNY   69  36  30 W16       30.24S                  
SUNLIGHT       NOT AVBL                                               
WILKERSON PASS PTSUNNY   54  34  47 SW9       30.39F                  
$$

COZ069>075-182100-
...SAN LUIS VALLEY/SANGRE DE CRISTO MOUNTAINS...
  
CITY           SKY/WX    TMP DP  RH WIND       PRES   REMARKS
ALAMOSA        LGT RAIN  65  48  54 NW12G20   30.17F                  
DEL NORTE      PTSUNNY   63  40  43 SW16      30.23R THUNDER          
LA VETA PASS   NOT AVBL                                               
SAGUACHE       CLOUDY    57  45  62 CALM      30.22R                  
$$

COZ035-036-038>040-182100-
...NORTHERN COLORADO FRONT RANGE...
  
CITY           SKY/WX    TMP DP  RH WIND       PRES   REMARKS
DENVER INTL AP PTSUNNY   68  52  56 W12       30.06F                  
AURORA         PTSUNNY   62  55  79 SW9       30.08F                  
FRONT RANGE AP CLOUDY    61  55  82 NE8       30.09F                  
ERIE MUNI ARPT FAIR      68  52  55 CALM      30.10F                  
BOULDER MUN AP LGT RAIN  64  54  68 NE5       30.05F                  
CENTENNIAL     CLOUDY    62  55  77 SW8       30.09F                  
BROOMFIELD     MOSUNNY   68  52  56 S3        30.08F                  
FORT COLLINS     N/A     62  55  77 W6        30.06F                  
LONGMONT       LGT RAIN  69  58  67 N7        30.06F                  
$$

COZ041-046-047-076>085-087-088-182100-
...PIKES PEAK/PALMER DIVIDE AND SOUTHERN FOOTHILLS...
  
CITY           SKY/WX    TMP DP  RH WIND       PRES   REMARKS
COLO. SPRINGS  CLOUDY    62  47  57 N17       30.11F THUNDER          
A. F. ACADEMY  NOT AVBL                                               
SCHRIEVER AFB  NOT AVBL                                               
CHEYENNE MTN   NOT AVBL                                               
ELLICOTT       TSTM     N/A N/A N/A E12       30.10S                  
FALCON         PTSUNNY   56  53  89 N13G21    30.15F                  
FORT CARSON    TSTM      59  52  77 N21G30    30.07S                  
LIMON          LGT RAIN  59  56  89 E6        30.08F                  
MONUMENT HILL  LGT RAIN  52  48  87 CALM      30.17F                  
CANON CITY     FAIR      79  50  36 SE7G16    30.01F                  
WALSENBURG     NOT AVBL                                               
TRINIDAD       FAIR      79  46  31 CALM      30.04F                  
$$

COZ042>045-048>051-090-091-182100-
...NORTHEAST COLORADO...
  
CITY           SKY/WX    TMP DP  RH WIND       PRES   REMARKS
GREELEY ARPT   PTSUNNY   71  55  56 SW10      30.03F                  
AKRON          CLOUDY    63  59  87 E9        30.05F                  
BURLINGTON     FAIR      72  59  63 NE6       30.02F                  
WRAY           PTSUNNY   68  57  68 E3        30.01F                  
YUMA           CLOUDY    61  46  59 NE3       30.04S                  
STERLING       CLOUDY    64  57  77 SE3       30.01F                  
HOLYOKE        PTSUNNY   68  59  73 SE6       30.03F                  
FORT MORGAN    PTSUNNY   62  57  82 E7        30.04F                  
$$

COZ086-089-092>099-182100-
...SOUTHEAST COLORADO...
  
CITY           SKY/WX    TMP DP  RH WIND       PRES   REMARKS
PUEBLO         FAIR      74  56  53 SE13G18   30.00F                  
LA JUNTA       FAIR      78  55  44 E12       29.99F                  
LAMAR          PTSUNNY   76  58  53 MISG      29.97F                  
SPRINGFIELD      N/A     75  59  57 VRB7      30.00F                  
$$